Address 0x9c1f2b60967078a8701502e89baf65c9e3025b2f

Overview

Balance:
12.988443996166838996 FTM

FTM Value:
$43.65 (@ $3.36/FTM)

Token:
Txn Hash Method
Block
From
To
Value [Txn Fee]
0x500ee8d75affc3e9ad57df4a06ed4707319b2e7b6b9f9eaf7805a76f205be87d0xb3d16931203097382021-10-28 1:51:5111 mins ago0x9c1f2b60967078a8701502e89baf65c9e3025b2fOUT 0xe836817fca0562b0e4cf6b819a12a1b1c8e216a40 FTM0.026416970681
0xd8bb74e1ff7039c7dc3c0c03ef4063b4cf10ade7d28099e5c86e5428dda5dd8a0xb3d16931203093152021-10-28 1:45:0618 mins ago0x9c1f2b60967078a8701502e89baf65c9e3025b2fOUT 0xe836817fca0562b0e4cf6b819a12a1b1c8e216a40 FTM0.085343931819
0x0a349118da8c78db8ea33d2924cb64e606e8441a7898b89917de80d8ac2f4daa0xb3d16931203091352021-10-28 1:41:3321 mins ago0x9c1f2b60967078a8701502e89baf65c9e3025b2fOUT 0xe836817fca0562b0e4cf6b819a12a1b1c8e216a40 FTM0.018015182201
0x93f36205085c940080f201f1c5589297e00a745d7d6770996822eb23e75bdb190xb3d16931203084822021-10-28 1:31:1432 mins ago0x9c1f2b60967078a8701502e89baf65c9e3025b2fOUT 0xe836817fca0562b0e4cf6b819a12a1b1c8e216a40 FTM0.012827506931
0x14a43da619b022e96940b87babbb2940eb084d142106492800e1e7303e73d5af0xb3d16931203067432021-10-28 1:06:4656 mins ago0x9c1f2b60967078a8701502e89baf65c9e3025b2fOUT 0xe836817fca0562b0e4cf6b819a12a1b1c8e216a40 FTM0.011463541246
0xa9eb14a7d10659f2ce6c36f922fb8701418b8931602654da210039894e0e5efe0xb3d16931203061652021-10-28 0:57:441 hr 5 mins ago0x9c1f2b60967078a8701502e89baf65c9e3025b2fOUT 0xe836817fca0562b0e4cf6b819a12a1b1c8e216a40 FTM0.011154653208
0x4bda6935ce7350c51675631d6c1dad9ce9d54def5c70098c07bfd2386e7d0fd70xb3d16931203024332021-10-28 0:07:001 hr 56 mins ago0x9c1f2b60967078a8701502e89baf65c9e3025b2fOUT 0xe836817fca0562b0e4cf6b819a12a1b1c8e216a40 FTM0.020066310591
0x537bb3285deb25456b1a8fe228abb10a1e76773a906a045a9caff90869cb0ab50xb3d16931203024332021-10-28 0:07:001 hr 56 mins ago0x9c1f2b60967078a8701502e89baf65c9e3025b2fOUT 0xe836817fca0562b0e4cf6b819a12a1b1c8e216a40 FTM0.013486105495
0xa788da8f395565237cfc810889377b08f028e8037930147b7d6cd8e91d073f540xb3d16931203002692021-10-27 23:33:532 hrs 29 mins ago0x9c1f2b60967078a8701502e89baf65c9e3025b2fOUT 0xe836817fca0562b0e4cf6b819a12a1b1c8e216a40 FTM0.011157543504
0x261a57f3c88feaa5bb8edacf9ac435da909620f362a24d52a30c3252f4c6fbda0xb3d16931202988032021-10-27 23:13:542 hrs 49 mins ago0x9c1f2b60967078a8701502e89baf65c9e3025b2fOUT 0xe836817fca0562b0e4cf6b819a12a1b1c8e216a40 FTM0.012861057992
0xa4f66ef30925c6dc38eec6108146b51d398426e1ec84ba50fa9d691c59669f200xb3d16931202978932021-10-27 23:01:223 hrs 2 mins ago0x9c1f2b60967078a8701502e89baf65c9e3025b2fOUT 0xe836817fca0562b0e4cf6b819a12a1b1c8e216a40 FTM0.01379094731
0x760095cf1ca6ebcd3dc322110da3e71030c4713d49b655d52b82a3c2471089820xb3d16931202963492021-10-27 22:38:083 hrs 25 mins ago0x9c1f2b60967078a8701502e89baf65c9e3025b2fOUT 0xe836817fca0562b0e4cf6b819a12a1b1c8e216a40 FTM0.012052065512
0xa9fc1bd8a4d12f8df76ebc808eede136d229c738fdcdf2a95ee5a1fb7cda78680xb3d16931202949982021-10-27 22:20:063 hrs 43 mins ago0x9c1f2b60967078a8701502e89baf65c9e3025b2fOUT 0xe836817fca0562b0e4cf6b819a12a1b1c8e216a40 FTM0.013113396544
0x42a357a0ffb365b98eb0dff5b10fb2255a2bfe39cc0214161a09ff13216405cc0xb3d16931202939162021-10-27 22:04:353 hrs 58 mins ago0x9c1f2b60967078a8701502e89baf65c9e3025b2fOUT 0xe836817fca0562b0e4cf6b819a12a1b1c8e216a40 FTM0.012963828377
0xc0e0ac21a0fe3932b2bbdcb385e893a31b26c3111c610bc2d3fd174c88d7ace60xb3d16931202926562021-10-27 21:47:134 hrs 16 mins ago0x9c1f2b60967078a8701502e89baf65c9e3025b2fOUT 0xe836817fca0562b0e4cf6b819a12a1b1c8e216a40 FTM0.014413175627
0xe80129f3da76b32c8b9d7d871fa3d1ad2fed8b8c28f9f97996504a1f8f0d63d80xb3d16931202901112021-10-27 21:12:244 hrs 51 mins ago0x9c1f2b60967078a8701502e89baf65c9e3025b2fOUT 0xe836817fca0562b0e4cf6b819a12a1b1c8e216a40 FTM0.074207592251
0x92869fd39f6fb15f8f75a497ce01f31820df61ef66488d9d883e8ff218abdbe60xb3d16931202893972021-10-27 21:03:045 hrs ago0x9c1f2b60967078a8701502e89baf65c9e3025b2fOUT 0xe836817fca0562b0e4cf6b819a12a1b1c8e216a40 FTM0.0781619217
0x54476fa47d17e5f4c21d83881a0060d1cfaa61164ca0a2e557164cd6d48bb90a0xb3d16931202883432021-10-27 20:48:235 hrs 15 mins ago0x9c1f2b60967078a8701502e89baf65c9e3025b2fOUT 0xe836817fca0562b0e4cf6b819a12a1b1c8e216a40 FTM0.074289546324
0x7fe89899220ee4ea5838f76b3c2c3a1882559aadbebb818ed4a339c3526a57060xb3d16931202870782021-10-27 20:31:225 hrs 32 mins ago0x9c1f2b60967078a8701502e89baf65c9e3025b2fOUT 0xe836817fca0562b0e4cf6b819a12a1b1c8e216a40 FTM0.023292607712
0x95ad5a0ba363e8d8c0a576570ab7c5c2719249c8b7e169b8e1d1902833046ee30xb3d16931202858712021-10-27 20:15:025 hrs 48 mins ago0x9c1f2b60967078a8701502e89baf65c9e3025b2fOUT 0xe836817fca0562b0e4cf6b819a12a1b1c8e216a40 FTM0.022095106888
0x439063193f8294723260177d3eaa3b25a588bd700a36cf70489e14f7b446c1430xb3d16931202841302021-10-27 19:50:536 hrs 12 mins ago0x9c1f2b60967078a8701502e89baf65c9e3025b2fOUT 0xe836817fca0562b0e4cf6b819a12a1b1c8e216a40 FTM0.023889894584
0x069880c7503ce716940f294f50c80b9824805ea5e6db5bb14b01e3c16eb997520xb3d16931202841272021-10-27 19:50:506 hrs 12 mins ago0x9c1f2b60967078a8701502e89baf65c9e3025b2fOUT 0xe836817fca0562b0e4cf6b819a12a1b1c8e216a40 FTM0.021542018587
0x38f96a71ee78e03ddb1238392a89d21653b748feef29342861be696e15f1eff20xb3d16931202835092021-10-27 19:39:476 hrs 23 mins ago0x9c1f2b60967078a8701502e89baf65c9e3025b2fOUT 0xe836817fca0562b0e4cf6b819a12a1b1c8e216a40 FTM0.021667901278
0x48d8acdc176510a3114c71d5efe52779d686f4193ed708df244f08b31f5cc0370xb3d16931202832362021-10-27 19:34:336 hrs 28 mins ago0x9c1f2b60967078a8701502e89baf65c9e3025b2fOUT 0xe836817fca0562b0e4cf6b819a12a1b1c8e216a40 FTM0.02083408565
0xcb5299d06c7b6e9d07b5ab6dca5ee5f77934c3aa81e070e44fe9a5ebe94ca3f70xb3d16931202822522021-10-27 19:20:046 hrs 43 mins ago0x9c1f2b60967078a8701502e89baf65c9e3025b2fOUT 0xe836817fca0562b0e4cf6b819a12a1b1c8e216a40 FTM0.016589399541
[ Download CSV Export 
Latest 9 internal transactions
Parent Txn Hash Block From To Value
0xf7e7cbb9704ad1d808b3644884f03a8755fa1add65f714e15b9657e56f41c0ad189561082021-10-13 0:12:0715 days 1 hr ago 0x2aebec482a121e9181c6f4300d895781992efbed0x9c1f2b60967078a8701502e89baf65c9e3025b2f30 FTM
0x883c056a811cbded85b709bed853567f1f2d45bc7b590f80e73cf850511d5c97181024802021-10-02 0:37:4826 days 1 hr ago 0x2aebec482a121e9181c6f4300d895781992efbed0x9c1f2b60967078a8701502e89baf65c9e3025b2f20 FTM
0xc3ddabeba4a47f252ccbbd88d6db104d083f99eb08776bd8e8504906d39c32b0170063302021-09-13 16:23:4244 days 9 hrs ago 0x2aebec482a121e9181c6f4300d895781992efbed0x9c1f2b60967078a8701502e89baf65c9e3025b2f20 FTM
0x0d6e772783f7e6847e609ad0e89f17ac7e0693900e7925bab1527fda88205dcb166034702021-09-07 15:24:1150 days 10 hrs ago 0x2aebec482a121e9181c6f4300d895781992efbed0x9c1f2b60967078a8701502e89baf65c9e3025b2f10 FTM
0xc0557d63d74f4c9bd3b20011333a17da8a359a98db878a94c9312e6145efdb21158921682021-08-30 8:01:4858 days 18 hrs ago 0xda0d3a83653b5b49f972484ab92ae883d8619e110x9c1f2b60967078a8701502e89baf65c9e3025b2f10 FTM
0x79554768a5bdfce8cc93d3cca3affdcc5dfab42590068e6bf98e1b161abb5001145611062021-08-14 7:36:4774 days 18 hrs ago 0xda0d3a83653b5b49f972484ab92ae883d8619e110x9c1f2b60967078a8701502e89baf65c9e3025b2f5 FTM
0xf297189b74affbcc7179e18b48776f99768f94c5ee555d3fa3b7eca3fdf05fa0124914202021-07-20 3:16:1099 days 22 hrs ago 0xda0d3a83653b5b49f972484ab92ae883d8619e110x9c1f2b60967078a8701502e89baf65c9e3025b2f5 FTM
0xfa39a8d4081c17cfe86b1990eb8fa76f162e268799e18bcc6d7689aa78df6740104170242021-06-23 7:42:59126 days 18 hrs ago 0xda0d3a83653b5b49f972484ab92ae883d8619e110x9c1f2b60967078a8701502e89baf65c9e3025b2f5 FTM
0xdcde9028e9cdb01fa98eda4cfb6b2b3faca2bd5e62570a2eb4a02dc7e7b7c94f104038352021-06-23 4:02:01126 days 22 hrs ago 0xda0d3a83653b5b49f972484ab92ae883d8619e110x9c1f2b60967078a8701502e89baf65c9e3025b2f2 FTM
[ Download CSV Export 
Loading

Contract Name:
0 FTM

Compiler Version
0

Optimization Enabled:
0 FTM

Other Settings:
-NA-
Block Transaction Gas Used Reward
Age Block Fee Address BC Fee Address Voting Power Jailed Incoming
Validator ID :
0 FTM

Amount Staked
0

Amount Delegated
0

Staking Total
0

Staking Start Epoch
0

Staking Start Time
0

Proof of Importance
0

Origination Score
0

Validation Score
0

Active
0

Online
0

Downtime
0 s
Address Amount claimed Rewards Created On Epoch Created On
Block Uncle Number Difficulty Gas Used Reward
Loading
Loading
Make sure to use the "Vote Down" button for any spammy posts, and the "Vote Up" for interesting conversations.